FGA923 FOOL-LFPG

Flight info

Callsign FGA923
Flight time N/A
Altitude 29000
Route BTA3S BTA UG857 DLA/N0477F300 UA604 KAN/N0472F320 UA604 AS UR978 BOD/N0459F340 UM998 KAMER DCT NAFOQ DCT SURJU DCT PADKO UN854 MRM UM976 MTL/N0379F180 A3 MOU
Aircraft A321/M-SDE3FGHIRWY/LB1

Departure

Time 2026-04-27 04:06
Airport Libreville Leon M'ba International Airport (FOOL)

Arrival

Time N/A
Airport Charles de Gaulle International Airport (LFPG)
Time Latitude Longitude Altitude Speed Heading
2026-04-27 03:36 0.45714 9.41101 31 ft 0 kts 227°
2026-04-27 03:56 0.45726 9.41112 34 ft 4 kts 210°
2026-04-27 03:56 0.45743 9.41126 36 ft 4 kts 233°
2026-04-27 03:57 0.45752 9.41147 34 ft 4 kts 287°
2026-04-27 03:57 0.45737 9.41165 32 ft 4 kts 331°
2026-04-27 03:57 0.45712 9.41177 36 ft 4 kts 338°
2026-04-27 03:57 0.45693 9.41185 34 ft 4 kts 334°
2026-04-27 03:58 0.45675 9.41194 35 ft 0 kts 334°
2026-04-27 03:59 0.45677 9.41192 35 ft 2 kts 335°
2026-04-27 04:00 0.45708 9.41178 36 ft 8 kts 335°
2026-04-27 04:00 0.45753 9.41157 36 ft 6 kts 337°
2026-04-27 04:00 0.45786 9.41155 36 ft 4 kts
2026-04-27 04:00 0.45806 9.41167 35 ft 3 kts 46°
2026-04-27 04:01 0.45815 9.41183 35 ft 2 kts 58°
2026-04-27 04:01 0.45830 9.41204 33 ft 7 kts 52°
2026-04-27 04:01 0.45889 9.41212 33 ft 12 kts 341°
2026-04-27 04:01 0.45986 9.41172 34 ft 18 kts 334°
2026-04-27 04:02 0.46113 9.41111 35 ft 23 kts 335°
2026-04-27 04:02 0.46269 9.41037 36 ft 27 kts 334°
2026-04-27 04:02 0.46441 9.40955 35 ft 26 kts 334°
2026-04-27 04:02 0.46599 9.40880 38 ft 24 kts 334°
2026-04-27 04:03 0.46746 9.40810 37 ft 22 kts 334°
2026-04-27 04:03 0.46882 9.40746 36 ft 21 kts 334°
2026-04-27 04:03 0.46987 9.40660 35 ft 19 kts 296°
2026-04-27 04:03 0.47061 9.40633 34 ft 7 kts 54°
2026-04-27 04:04 0.47052 9.40657 36 ft 3 kts 137°
2026-04-27 04:04 0.47040 9.40663 34 ft 1 kts 152°
2026-04-27 04:04 0.47039 9.40664 34 ft 0 kts 153°
2026-04-27 04:05 0.46947 9.40710 36 ft 46 kts 153°
2026-04-27 04:05 0.46452 9.40950 37 ft 110 kts 154°
2026-04-27 04:05 0.45601 9.41360 33 ft 160 kts 154°
2026-04-27 04:06 0.44512 9.41902 306 ft 177 kts 150°
2026-04-27 04:06 0.43546 9.42565 1111 ft 165 kts 131°
2026-04-27 04:06 0.42853 9.43542 1483 ft 183 kts 118°
2026-04-27 04:07 0.42361 9.46126 2124 ft 199 kts 84°
2026-04-27 04:07 0.42741 9.47484 2289 ft 209 kts 67°
2026-04-27 04:07 0.43342 9.48824 2463 ft 216 kts 66°
2026-04-27 04:07 0.43991 9.50226 2567 ft 230 kts 66°
2026-04-27 04:08 0.44687 9.51723 2686 ft 247 kts 65°
2026-04-27 04:08 0.45433 9.53331 2914 ft 261 kts 65°
2026-04-27 04:08 0.46202 9.54995 3404 ft 266 kts 65°
2026-04-27 04:08 0.46980 9.56683 3905 ft 269 kts 65°
2026-04-27 04:09 0.47845 9.58345 4412 ft 272 kts 52°
2026-04-27 04:09 0.49267 9.59583 4856 ft 275 kts 26°
2026-04-27 04:09 0.51105 9.60100 5334 ft 276 kts
2026-04-27 04:09 0.53012 9.60374 5850 ft 278 kts
2026-04-27 04:10 0.54931 9.60655 6345 ft 279 kts
2026-04-27 04:10 0.56856 9.60941 6800 ft 280 kts
2026-04-27 04:10 0.58791 9.61229 7258 ft 282 kts
2026-04-27 04:10 0.60736 9.61522 7716 ft 284 kts
2026-04-27 04:11 0.62692 9.61818 8181 ft 285 kts
2026-04-27 04:11 0.64660 9.62116 8642 ft 286 kts
2026-04-27 04:11 0.66636 9.62412 9100 ft 288 kts
2026-04-27 04:11 0.68623 9.62706 9558 ft 290 kts
2026-04-27 04:12 0.70623 9.63002 9992 ft 291 kts
2026-04-27 04:12 0.72663 9.63308 10160 ft 303 kts
2026-04-27 04:12 0.74799 9.63630 10283 ft 316 kts
2026-04-27 04:12 0.77019 9.63962 10395 ft 329 kts
2026-04-27 04:13 0.79330 9.64304 10515 ft 342 kts
2026-04-27 04:13 0.81690 9.64653 10636 ft 354 kts
2026-04-27 04:13 0.84196 9.65027 10749 ft 365 kts
2026-04-27 04:13 0.86711 9.65404 10869 ft 376 kts
2026-04-27 04:14 0.89334 9.65799 10986 ft 386 kts
2026-04-27 04:14 0.92016 9.66204 11181 ft 393 kts
2026-04-27 04:14 0.94731 9.66612 11502 ft 396 kts
2026-04-27 04:14 0.97462 9.67022 11851 ft 398 kts
2026-04-27 04:15 1.00203 9.67432 12199 ft 400 kts
2026-04-27 04:15 1.02962 9.67845 12540 ft 401 kts
2026-04-27 04:15 1.05732 9.68258 12885 ft 403 kts
2026-04-27 04:15 1.08512 9.68668 13224 ft 405 kts
2026-04-27 04:16 1.11304 9.69081 13542 ft 406 kts
2026-04-27 04:16 1.14104 9.69500 13837 ft 409 kts
2026-04-27 04:16 1.16926 9.69926 14098 ft 411 kts
2026-04-27 04:16 1.19760 9.70351 14372 ft 413 kts
2026-04-27 04:17 1.22604 9.70774 14649 ft 414 kts
2026-04-27 04:17 1.25457 9.71197 14927 ft 416 kts
2026-04-27 04:17 1.28327 9.71623 15201 ft 418 kts
2026-04-27 04:17 1.31206 9.72054 15475 ft 419 kts
2026-04-27 04:18 1.34097 9.72490 15754 ft 421 kts
2026-04-27 04:18 1.37000 9.72926 16032 ft 423 kts
2026-04-27 04:18 1.39912 9.73361 16290 ft 424 kts
2026-04-27 04:18 1.42840 9.73800 16550 ft 426 kts
2026-04-27 04:19 1.45778 9.74243 16819 ft 428 kts
2026-04-27 04:19 1.48721 9.74687 17085 ft 429 kts
2026-04-27 04:19 1.51683 9.75130 17334 ft 431 kts
2026-04-27 04:19 1.54662 9.75572 17555 ft 434 kts
2026-04-27 04:20 1.57658 9.76015 17814 ft 436 kts
2026-04-27 04:20 1.60664 9.76460 18077 ft 438 kts
2026-04-27 04:20 1.63683 9.76908 18324 ft 439 kts
2026-04-27 04:20 1.66711 9.77358 18545 ft 441 kts
2026-04-27 04:21 1.69749 9.77810 18783 ft 442 kts
2026-04-27 04:21 1.72795 9.78266 19009 ft 444 kts
2026-04-27 04:21 1.75853 9.78723 19236 ft 445 kts
2026-04-27 04:21 1.78919 9.79185 19461 ft 446 kts
2026-04-27 04:22 1.81995 9.79652 19686 ft 448 kts
2026-04-27 04:22 1.85081 9.80121 19896 ft 449 kts
2026-04-27 04:22 1.88168 9.80590 20111 ft 450 kts
2026-04-27 04:22 1.91295 9.80864 20292 ft 452 kts
2026-04-27 04:23 1.94446 9.80776 20482 ft 454 kts 358°
2026-04-27 04:23 1.97611 9.80668 20686 ft 456 kts 358°
2026-04-27 04:23 2.00785 9.80561 20883 ft 457 kts 358°
2026-04-27 04:23 2.03970 9.80457 21090 ft 458 kts 358°
2026-04-27 04:24 2.07168 9.80354 21290 ft 460 kts 359°
2026-04-27 04:24 2.10368 9.80254 21492 ft 461 kts 359°
2026-04-27 04:24 2.13583 9.80157 21699 ft 462 kts 359°
2026-04-27 04:24 2.16801 9.80063 21888 ft 464 kts 359°
2026-04-27 04:25 2.20029 9.79966 22077 ft 465 kts 359°
2026-04-27 04:25 2.23271 9.79865 22266 ft 466 kts 359°
2026-04-27 04:25 2.26514 9.79764 22446 ft 467 kts 359°
2026-04-27 04:25 2.29775 9.79662 22604 ft 469 kts 359°
2026-04-27 04:26 2.33042 9.79561 22777 ft 471 kts 359°
2026-04-27 04:26 2.36316 9.79458 22942 ft 472 kts 359°
2026-04-27 04:26 2.39601 9.79354 23109 ft 473 kts 359°
2026-04-27 04:26 2.42896 9.79250 23277 ft 474 kts 359°
2026-04-27 04:27 2.46194 9.79148 23444 ft 475 kts 359°
2026-04-27 04:27 2.49502 9.79044 23594 ft 476 kts 359°
2026-04-27 04:27 2.52818 9.78938 23737 ft 477 kts 359°
2026-04-27 04:27 2.56139 9.78832 23886 ft 478 kts 359°
2026-04-27 04:28 2.59471 9.78725 24037 ft 479 kts 359°
2026-04-27 04:28 2.62797 9.78619 24254 ft 478 kts 359°
2026-04-27 04:28 2.66121 9.78516 24445 ft 478 kts 359°
2026-04-27 04:28 2.69445 9.78414 24631 ft 478 kts 359°
2026-04-27 04:29 2.72765 9.78315 24833 ft 477 kts 359°
2026-04-27 04:29 2.76084 9.78216 25038 ft 477 kts 359°
2026-04-27 04:29 2.78280 9.78148 25176 ft 477 kts 359°
2026-04-27 04:29 2.81596 9.78042 25384 ft 476 kts 359°
2026-04-27 04:30 2.85979 9.77900 25668 ft 475 kts 359°
2026-04-27 04:30 2.88212 9.77828 25803 ft 475 kts 359°
2026-04-27 04:30 2.91512 9.77723 26011 ft 475 kts 359°
2026-04-27 04:30 2.94808 9.77622 26219 ft 474 kts 360°
2026-04-27 04:31 2.98110 9.77523 26429 ft 474 kts 360°